[[{"header":{"parameterUnit":"m.s-1","parameterCategory":1,"la1":30.2991,"la2":30.254,"lo1":-89.0895,"lo2":-89.0444,"dy":0.0017,"dx":0.0017,"nx":28,"ny":28,"refTime":"2024-10-17T21:00:00:Z","depth":0,"parameterNumber":2,"parameterNumberName":"U-component_of_WINDS"},"data":[0,0,0,0,0,0,0,0,0,0,0,0,0,0,0,0,0,0,0,0,0,0,0,0,0,0,0,0,0,0,0,0,0,0,0,0,0,0,0,0,0,0,0,0,0,0,0,0,0,0,0,0,0,0,0,0,0,0,-5.1435,-5.1434,0,-5.1377,-5.1376,-5.1375,-5.1196,-5.1193,-5.1189,-5.1185,-5.113,-5.1132,-5.1134,0,0,0,0,0,0,0,0,0,0,0,0,0,-5.1395,-5.1397,-5.1435,-5.1434,-5.1433,-5.1377,-5.1376,-5.1375,-5.1197,-5.1192,-5.1188,-5.1183,-5.1129,-5.1131,-5.1134,0,0,0,0,0,0,0,0,0,0,0,0,0,-5.1383,-5.1397,-5.1435,-5.1337,-5.1328,-5.1377,-5.1376,-5.1375,-5.1198,-5.1192,-5.1186,-5.1181,-5.1128,-5.1131,-5.1135,-5.1274,0,0,-5.1145,-5.1146,0,0,0,0,0,0,0,0,-5.1383,-5.1384,-5.1352,-5.1344,-5.1334,-5.1288,-5.1342,-5.1341,-5.12,-5.1248,-5.1185,-5.1178,-5.1187,-5.1185,-5.1188,-5.1272,-5.1269,-5.1145,-5.1147,-5.1148,-5.1149,0,0,0,0,0,0,0,-5.1385,-5.1386,-5.1412,-5.1352,-5.1341,-5.1298,-5.129,-5.1341,-5.1252,-5.1243,-5.123,-5.1225,-5.1181,-5.1185,-5.1185,-5.1268,-5.1145,-5.1148,-5.115,-5.1151,-5.1465,-5.1471,0,0,0,0,0,0,-5.1399,-5.1388,-5.1414,-5.141,-5.1344,-5.1304,-5.1294,-5.1309,-5.1251,-5.1236,-5.123,-5.1217,-5.1182,-5.1181,-5.1182,-5.1342,-5.1148,-5.1152,-5.1153,-5.1459,-5.1467,-5.1473,0,0,0,0,0,0,-5.1399,-5.1403,-5.1416,-5.1395,-5.1394,-5.1311,-5.1328,-5.1311,-5.1314,-5.1241,-5.1225,-5.125,-5.1177,-5.1178,-5.1253,-5.1338,-5.1153,-5.1156,-5.1451,-5.1461,-5.147,-5.1664,0,0,0,0,0,0,-5.1398,-5.1404,-5.1455,-5.1398,-5.1395,-5.1486,-5.1333,-5.1314,-5.132,-5.1302,-5.1255,-5.1242,-5.1173,-5.1249,-5.1256,-5.1339,-5.1159,-5.1443,-5.1456,-5.1467,-5.165,-5.1679,-5.1704,0,0,0,0,0,-5.1397,-5.1512,-5.1458,-5.1463,-5.1457,-5.1492,-5.149,-5.1407,-5.1327,-5.1379,-5.1332,-5.1244,-5.1328,-5.1258,-5.1265,-5.135,-5.1438,-5.1452,-5.1466,-5.1637,-5.1673,-5.1704,0,0,0,0,0,0,-5.1583,-5.1503,-5.1442,-5.1542,-5.1525,-5.1461,-5.1523,-5.1448,-5.1454,-5.1437,-5.1335,-5.1326,-5.1416,-5.139,-5.1314,-5.1483,-5.1368,-5.1385,-5.1496,-5.1529,-5.1556,-5.1561,-5.1161,0,0,0,0,0,-5.1635,-5.1668,-5.1597,-5.1692,-5.1687,-5.1608,-5.1619,-5.1556,-5.1535,-5.1527,-5.1486,-5.147,-5.1492,-5.1509,-5.1526,-5.1645,-5.1633,-5.1708,-5.1735,-5.1758,-5.1773,-5.1835,-5.1868,-5.152,-5.152,-5.152,0,0,-5.1744,-5.1704,-5.1732,-5.1729,-5.1708,-5.1746,-5.1602,-5.1648,-5.1676,-5.1534,-5.1602,-5.1572,-5.1547,-5.1646,-5.1686,-5.1627,-5.1867,-5.1776,-5.1795,-5.1797,-5.1854,-5.1887,-5.1916,-5.153,-5.1528,-5.1527,0,0,-5.1961,-5.1935,-5.2011,-5.1993,-5.1963,-5.191,-5.1929,-5.1877,-5.1851,-5.1917,-5.1812,-5.1845,-5.1886,-5.1873,-5.1872,-5.2086,-5.2005,-5.2095,-5.2237,-5.2299,-5.2327,-5.235,-5.2428,-5.2456,-5.211,-5.2111,-5.2111,0,-5.21,-5.2152,-5.206,-5.2113,-5.2115,-5.1988,-5.2066,-5.2054,-5.2032,-5.2037,-5.1971,-5.202,-5.1995,-5.2088,-5.2141,-5.2144,-5.2163,-5.2099,-5.233,-5.2353,-5.2374,-5.2446,-5.2476,-5.2122,-5.2121,-5.2119,-5.2118,0,-5.2325,-5.2363,-5.2428,-5.2409,-5.2419,-5.2485,-5.2404,-5.2425,-5.2363,-5.2317,-5.2387,-5.2352,-5.236,-5.2378,-5.2317,-5.2464,-5.2428,-5.2348,-5.223,-5.2419,-5.2486,-5.2513,-5.2138,-5.2134,-5.213,-5.2128,0,0,-5.2656,-5.2586,-5.2612,-5.2602,-5.2561,-5.2589,-5.265,-5.2656,-5.2677,-5.2667,-5.2716,-5.2755,-5.268,-5.2679,-5.2616,-5.2671,-5.2844,-5.2583,-5.2581,-5.2633,-5.3005,-5.3066,-5.3099,-5.2791,-5.2795,-5.2799,-5.3007,0,-5.2862,-5.296,-5.288,-5.2993,-5.3027,-5.2908,-5.2961,-5.2943,-5.2902,-5.2927,-5.2882,-5.2911,-5.281,-5.2809,-5.2857,-5.2813,-5.2917,-5.2797,-5.2836,-5.2839,-5.2846,-5.3134,-5.3198,-5.3395,-5.3032,-5.3037,-5.304,0,-5.3115,-5.3116,-5.3233,-5.3185,-5.3196,-5.3245,-5.3245,-5.327,-5.3247,-5.3214,-5.3214,-5.3137,-5.3194,-5.308,-5.3159,-5.3079,-5.309,-5.3071,-5.3077,-5.3077,-5.2951,-5.3143,-5.3456,-5.3486,-5.308,-5.3076,-5.3074,0,-5.3346,-5.3376,-5.345,-5.3445,-5.3391,-5.3428,-5.3408,-5.3379,-5.3389,-5.339,-5.3396,-5.3404,-5.3409,-5.3419,-5.3347,-5.327,-5.3436,-5.3314,-5.3411,-5.3413,-5.3451,-5.3449,-5.3771,-5.3459,-5.3458,-5.3458,-5.3457,0,-5.3584,-5.3661,-5.3553,-5.3598,-5.368,-5.3589,-5.3673,-5.364,-5.3616,-5.3655,-5.3553,-5.3591,-5.3493,-5.3522,-5.3467,-5.3541,-5.3544,-5.352,-5.3504,-5.3529,-5.3533,-5.3535,-5.352,-5.3466,-5.3464,-5.3462,-5.3461,0,-5.3856,-5.3786,-5.3859,-5.3802,-5.3789,-5.3853,-5.3805,-5.3845,-5.3798,-5.3848,-5.3855,-5.3782,-5.3811,-5.374,-5.3759,-5.3721,-5.3828,-5.3791,-5.3836,-5.3824,-5.3925,-5.3917,-5.426,-5.4301,-5.3963,-5.3966,-5.3969,0,-5.4012,-5.4068,-5.4017,-5.4035,-5.402,-5.405,-5.4059,-5.3971,-5.3986,-5.3965,-5.4009,-5.4029,-5.404,-5.4092,-5.4042,-5.4056,-5.4018,-5.4138,-5.402,-5.4044,-5.4021,-5.4019,-5.4024,-5.4162,-5.4167,-5.417,-5.4173,0,-5.4298,-5.4261,-5.4277,-5.4283,-5.4297,-5.4297,-5.4291,-5.4312,-5.4218,-5.424,-5.4267,-5.4277,-5.4296,-5.4318,-5.4321,-5.4301,-5.4223,-5.421,-5.4233,-5.4259,-5.4283,-5.4272,-5.3902,-5.4203,-5.42,-5.4197,-5.4196,-5.4195,-5.4516,-5.456,-5.4532,-5.4554,-5.454,-5.4537,-5.4572,-5.453,-5.4551,-5.4559,-5.4507,-5.4546,-5.4524,-5.452,-5.4509,-5.4539,-5.4485,-5.4519,-5.4527,-5.4537,-5.4554,-5.4279,-5.454,-5.4539,-5.4538,-5.4537,-5.4536,0,-5.4797,-5.4773,-5.4794,-5.4788,-5.4806,-5.473,-5.4719,-5.474,-5.4775,-5.4761,-5.4774,-5.4807,-5.4828,-5.478,-5.4794,-5.4829,-5.4793,-5.4835,-5.4832,-5.4829,-5.4601,-5.4579,-5.4864,-5.4864,-5.4864,-5.4864,-5.4864,-5.4864,-5.4945,-5.5016,-5.4976,-5.504,-5.5015,-5.5052,-5.5053,-5.505,-5.5038,-5.5079,-5.5096,-5.5064,-5.5036,-5.5048,-5.5065,-5.505,-5.5061,-5.5116,-5.5089,-5.4877,-5.4845,-5.4814,-5.4794,-5.5119,-5.5119,-5.5314,-5.5316,-5.5318]},{"header":{"parameterUnit":"m.s-1","parameterCategory":1,"la1":30.2991,"la2":30.254,"lo1":-89.0895,"lo2":-89.0444,"dy":0.0017,"dx":0.0017,"nx":28,"ny":28,"refTime":"2024-10-17T21:00:00:Z","depth":0,"parameterNumber":3,"parameterNumberName":"V-component_of_WINDS"},"data":[0,0,0,0,0,0,0,0,0,0,0,0,0,0,0,0,0,0,0,0,0,0,0,0,0,0,0,0,0,0,0,0,0,0,0,0,0,0,0,0,0,0,0,0,0,0,0,0,0,0,0,0,0,0,0,0,0,0,-0.4123,-0.4124,0,-0.4132,-0.4132,-0.4133,-0.41,-0.4099,-0.4098,-0.4098,-0.411,-0.4111,-0.4112,0,0,0,0,0,0,0,0,0,0,0,0,0,-0.408,-0.4081,-0.4123,-0.4124,-0.4124,-0.4132,-0.4132,-0.4133,-0.4101,-0.4099,-0.4098,-0.4097,-0.4109,-0.4111,-0.4112,0,0,0,0,0,0,0,0,0,0,0,0,0,-0.4095,-0.4081,-0.4123,-0.4109,-0.4107,-0.4132,-0.4132,-0.4133,-0.4101,-0.4099,-0.4098,-0.4097,-0.4109,-0.4111,-0.4112,-0.4153,0,0,-0.4118,-0.4119,0,0,0,0,0,0,0,0,-0.4094,-0.4097,-0.4111,-0.411,-0.4108,-0.4114,-0.4122,-0.414,-0.4101,-0.4103,-0.4098,-0.4096,-0.4112,-0.4114,-0.4119,-0.4153,-0.4154,-0.4118,-0.4119,-0.412,-0.4121,0,0,0,0,0,0,0,-0.4093,-0.4096,-0.4127,-0.4111,-0.411,-0.4102,-0.4103,-0.4125,-0.4116,-0.4103,-0.4101,-0.4102,-0.4112,-0.4117,-0.4119,-0.4154,-0.4118,-0.412,-0.4121,-0.4122,-0.4221,-0.4223,0,0,0,0,0,0,-0.4094,-0.4095,-0.4127,-0.4127,-0.4097,-0.4104,-0.4105,-0.4114,-0.4116,-0.4115,-0.4103,-0.4101,-0.4115,-0.4117,-0.4119,-0.4167,-0.412,-0.4122,-0.4123,-0.422,-0.4222,-0.4223,0,0,0,0,0,0,-0.4093,-0.4097,-0.4126,-0.4111,-0.4114,-0.4106,-0.4117,-0.4114,-0.412,-0.4116,-0.4114,-0.4111,-0.4114,-0.4117,-0.4144,-0.4167,-0.4123,-0.4124,-0.4218,-0.4221,-0.4223,-0.4263,0,0,0,0,0,0,-0.4092,-0.4097,-0.4112,-0.4111,-0.4115,-0.4151,-0.4118,-0.4116,-0.4123,-0.4119,-0.4122,-0.4121,-0.4113,-0.4142,-0.4146,-0.4169,-0.4126,-0.4216,-0.4219,-0.4222,-0.4259,-0.4266,-0.4272,0,0,0,0,0,-0.4091,-0.4124,-0.4113,-0.4117,-0.4134,-0.4153,-0.4155,-0.4143,-0.4125,-0.414,-0.4137,-0.4121,-0.4163,-0.4145,-0.415,-0.4173,-0.4215,-0.4218,-0.4222,-0.4256,-0.4265,-0.4271,0,0,0,0,0,0,-0.4129,-0.4124,-0.4112,-0.4145,-0.415,-0.4147,-0.4167,-0.4152,-0.4163,-0.4159,-0.4145,-0.4146,-0.4176,-0.4177,-0.4157,-0.4212,-0.4186,-0.419,-0.4211,-0.4218,-0.4224,-0.4225,-0.4127,0,0,0,0,0,-0.4141,-0.4157,-0.4151,-0.4181,-0.4184,-0.4175,-0.4183,-0.4173,-0.4177,-0.4179,-0.4178,-0.4184,-0.4198,-0.4208,-0.422,-0.4258,-0.4259,-0.4276,-0.4282,-0.4287,-0.4293,-0.4312,-0.432,-0.4235,-0.4235,-0.4235,0,0,-0.4167,-0.4166,-0.4177,-0.4189,-0.4191,-0.4208,-0.4177,-0.4196,-0.4208,-0.4182,-0.4209,-0.4208,-0.4213,-0.4245,-0.426,-0.4247,-0.4315,-0.4292,-0.4296,-0.4298,-0.4317,-0.4325,-0.4332,-0.4237,-0.4237,-0.4236,0,0,-0.4224,-0.4224,-0.4249,-0.4251,-0.4254,-0.4247,-0.4253,-0.4252,-0.425,-0.4276,-0.4256,-0.4271,-0.4296,-0.43,-0.4305,-0.436,-0.4346,-0.4364,-0.4398,-0.4417,-0.4424,-0.443,-0.4451,-0.4458,-0.4369,-0.4369,-0.4369,0,-0.4256,-0.428,-0.4264,-0.4284,-0.429,-0.4265,-0.4291,-0.4294,-0.4301,-0.4306,-0.4291,-0.432,-0.4322,-0.4355,-0.4369,-0.4373,-0.438,-0.4365,-0.4424,-0.443,-0.4435,-0.4455,-0.4463,-0.4371,-0.4371,-0.4371,-0.437,0,-0.432,-0.4337,-0.4357,-0.4363,-0.4371,-0.4394,-0.4381,-0.4391,-0.438,-0.4375,-0.4401,-0.4401,-0.4413,-0.442,-0.441,-0.4452,-0.4444,-0.4426,-0.4401,-0.4446,-0.4464,-0.4472,-0.4374,-0.4374,-0.4373,-0.4372,0,0,-0.4404,-0.4399,-0.4407,-0.4409,-0.4409,-0.4422,-0.4443,-0.4453,-0.4463,-0.4468,-0.4486,-0.4506,-0.4489,-0.4495,-0.4485,-0.4502,-0.4546,-0.4482,-0.4482,-0.4496,-0.4593,-0.4607,-0.4616,-0.4535,-0.4537,-0.4538,-0.4593,0,-0.446,-0.4496,-0.4481,-0.4519,-0.4534,-0.4509,-0.4527,-0.4529,-0.4524,-0.4537,-0.4531,-0.4546,-0.4523,-0.4526,-0.4541,-0.4537,-0.4566,-0.4533,-0.4553,-0.4554,-0.4555,-0.4625,-0.4641,-0.4693,-0.46,-0.4601,-0.4602,0,-0.4532,-0.4538,-0.4577,-0.4572,-0.4578,-0.4595,-0.4603,-0.4615,-0.4616,-0.4611,-0.4617,-0.4602,-0.4623,-0.4595,-0.4624,-0.4602,-0.4609,-0.4608,-0.4609,-0.4613,-0.4582,-0.4632,-0.4709,-0.4718,-0.4612,-0.4611,-0.4611,0,-0.4591,-0.4609,-0.4634,-0.4636,-0.4632,-0.4644,-0.4643,-0.4643,-0.465,-0.4657,-0.4661,-0.467,-0.4676,-0.4684,-0.4672,-0.4653,-0.4703,-0.4674,-0.47,-0.4701,-0.4714,-0.4714,-0.4796,-0.4716,-0.4715,-0.4715,-0.4715,0,-0.4656,-0.4681,-0.466,-0.4676,-0.4703,-0.4685,-0.4712,-0.4708,-0.4708,-0.4723,-0.4701,-0.4716,-0.4698,-0.4711,-0.4702,-0.4728,-0.473,-0.4727,-0.4725,-0.4731,-0.4731,-0.4737,-0.4734,-0.4717,-0.4717,-0.4716,-0.4716,0,-0.4728,-0.4715,-0.4741,-0.4734,-0.4732,-0.4753,-0.4747,-0.4761,-0.4753,-0.4772,-0.4776,-0.4764,-0.4778,-0.4766,-0.478,-0.4773,-0.4808,-0.4799,-0.4807,-0.4806,-0.4833,-0.4832,-0.4923,-0.4935,-0.4846,-0.4846,-0.4847,0,-0.4772,-0.4791,-0.4784,-0.4792,-0.4792,-0.4805,-0.4811,-0.4793,-0.4801,-0.4802,-0.4817,-0.4828,-0.4837,-0.486,-0.4854,-0.4864,-0.4857,-0.4888,-0.4858,-0.4863,-0.4859,-0.4859,-0.4861,-0.4895,-0.4896,-0.4897,-0.4897,0,-0.4852,-0.4844,-0.4853,-0.486,-0.4867,-0.4872,-0.4875,-0.4883,-0.4864,-0.4874,-0.4887,-0.4894,-0.4906,-0.4919,-0.4926,-0.4925,-0.4909,-0.4906,-0.4913,-0.492,-0.4925,-0.4924,-0.4826,-0.4905,-0.4904,-0.4904,-0.4903,-0.4903,-0.4912,-0.4927,-0.4925,-0.4936,-0.4935,-0.4938,-0.4951,-0.4944,-0.4954,-0.4963,-0.4951,-0.4968,-0.4967,-0.4975,-0.4976,-0.4989,-0.4976,-0.4986,-0.4989,-0.4992,-0.4997,-0.492,-0.499,-0.499,-0.499,-0.499,-0.4989,0,-0.4992,-0.4988,-0.4998,-0.5002,-0.5011,-0.4992,-0.4994,-0.5002,-0.5017,-0.5017,-0.5025,-0.504,-0.5051,-0.5044,-0.5053,-0.5065,-0.5058,-0.5068,-0.5068,-0.5069,-0.5007,-0.5001,-0.5074,-0.5074,-0.5074,-0.5074,-0.5074,-0.5074,-0.5035,-0.5059,-0.505,-0.5074,-0.507,-0.5085,-0.5088,-0.509,-0.509,-0.5107,-0.5116,-0.511,-0.5108,-0.5116,-0.5126,-0.5123,-0.5129,-0.5142,-0.5138,-0.5081,-0.5073,-0.5065,-0.5059,-0.5143,-0.5143,-0.5198,-0.5198,-0.5199]}]]